Location: Beerhof
(50.9500°N, 3.6167°E)
Time: 14:14:45
(UTC+00:00)

Daily predictions for brighter satellites

Satellite Brightness Start Highest point End
(mag) Time Altitude Azimuth Time Altitude Azimuth Time Altitude Azimuth
Gbstr 26 Del rocket 3.2 20:28:13 10° WSW 20:32:31 75° SSE 20:37:47 10° ENE
Timation 2 Rocket 4.3 20:27:07 10° S 20:33:01 44° ESE 20:38:46 10° NE
Cosmos 1125 Rocket 4.3 20:30:36 10° SSE 20:35:16 32° ESE 20:39:57 10° NE
USA 276 2.3 20:36:40 10° W 20:39:32 50° SSW 20:42:29 10° ESE
Cosmos 2084 3.6 20:39:23 10° SSW 20:43:17 42° SE 20:47:02 10° NE
SPOT 3 Rocket 3.8 20:39:15 10° SSE 20:44:22 62° ENE 20:49:32 10° N
NOSS 2-2 (E) 3.0 20:47:43 10° SSW 20:50:49 44° SE 20:53:49 10° NE
NOSS 2-2 (C) 2.6 20:47:59 10° SW 20:51:08 70° SE 20:54:17 10° NE
Nadezhda 3 Rocket 4.1 20:46:31 10° N 20:52:42 86° W 20:58:51 10° S
Landsat 4 4.1 20:50:00 10° SE 20:53:15 43° ENE 20:56:32 10° N
In-Cosmos 22 Rocket 4.3 20:47:40 10° S 20:53:20 66° E 20:58:54 10° NNE
Cosmos 1544 Rocket 4.1 20:49:52 10° N 20:54:02 43° ENE 20:58:03 11° SE
BREEZE-M DEB (TANK) 3.6 20:51:30 10° W 20:54:16 51° SSW 21:01:20 10° ESE
NOSS 2-3 (E) 3.3 20:53:26 10° SSW 20:56:59 52° SE 21:01:00 10° NE
Cosmos 1844 4.1 20:52:01 10° SW 20:57:48 74° WNW 21:03:36 10° NNE
Terra 1.9 20:53:32 10° S 20:58:14 79° WSW 21:03:00 10° NNW
Meteor 1-21 Rocket 4.4 20:59:17 10° SSW 21:04:49 75° WNW 21:10:23 10° N
USA 305 3.5 21:01:42 10° W 21:05:25 48° N 21:08:46 10° ENE
ATLAS CENTAUR R/B 2.0 21:03:19 10° NW 21:07:07 45° SW 21:10:52 11° SSE
Cosmos 1437 Rocket 3.6 21:07:19 13° SSE 21:10:00 29° E 21:13:11 10° NNE
Meteor 2-1 Rocket 4.3 21:07:31 10° NNW 21:13:11 80° W 21:18:43 10° S
Cosmos 1833 Rocket 2.8 21:07:39 10° NNW 21:13:20 75° ENE 21:18:22 13° SE
Cosmos 1455 Rocket 3.9 21:10:15 10° NNW 21:14:29 48° W 21:18:41 10° SSW
NOSS 2-3 (C) 3.1 21:11:06 10° SW 21:14:43 75° SE 21:18:53 10° NE
Cosmos 1975 Rocket 3.3 21:14:46 10° SSW 21:19:14 77° WNW 21:23:43 10° N
Orbus 7S? 4.5 21:17:30 10° W 21:19:34 19° SW 21:21:20 12° S
Cosmos 1025 Rocket 4.4 21:15:46 10° SW 21:19:45 39° WNW 21:23:47 10° N
Cosmos 44 3.9 21:15:15 10° S 21:20:08 39° ESE 21:24:50 10° NE
Cosmos 962 Rocket 4.5 21:16:00 10° S 21:22:09 72° E 21:28:17 10° NNE
Lacrosse 5 2.2 21:17:07 10° WSW 21:22:10 70° NNW 21:27:15 10° ENE
ERS-1 Rocket 4.0 21:19:20 10° S 21:24:06 42° W 21:28:52 10° NNW
Cosmos 220 Rocket 3.9 21:20:36 10° NNW 21:24:46 78° WSW 21:28:09 15° SSE
Spot 2 Rocket 4.1 21:20:02 10° S 21:25:02 56° W 21:30:04 10° NNW
Cosmos 2082 Rocket 3.3 21:21:15 10° NNW 21:26:25 35° NE 21:31:33 10° ESE
NOSS 2-2 (D) 2.8 21:25:24 10° SW 21:28:35 78° NW 21:31:47 10° NE
USA 307 3.4 21:24:49 10° W 21:28:40 54° N 21:32:20 10° ENE
ATLAS 5 CENTAUR R/B 3.1 21:25:38 10° W 21:28:46 33° NNW 21:32:21 10° NE
Cosmos 2218 Rocket 4.2 21:23:41 12° SSE 21:29:17 53° E 21:35:16 10° NNE
Landsat 5 3.8 21:26:10 10° NNE 21:30:29 52° E 21:34:10 14° S
Cosmos 1844 Rocket 4.2 21:28:50 10° WSW 21:34:02 39° NW 21:39:16 10° NNE
Cosmos 1606 3.3 21:31:27 10° NNW 21:34:54 48° W 21:38:05 12° SSW
Cosmos 2278 Rocket 3.1 21:31:13 15° SSE 21:34:59 30° ESE 21:39:49 10° NE
MetOp-A 3.6 21:35:02 16° SSE 21:38:44 84° ENE 21:43:04 10° NNW
Cosmos 2298 Rocket 4.1 21:34:02 10° S 21:39:14 59° ESE 21:44:29 10° NNE
ULPM Upper Stage 4.1 21:35:57 10° NW 21:40:02 36° NNE 21:44:05 10° E
Cosmos 2341 Rocket 4.0 21:33:57 10° S 21:40:13 78° E 21:46:36 10° NNE
Cosmos 614 Rocket 3.9 21:35:40 10° NNW 21:40:47 82° ENE 21:44:35 18° SSE
Cosmos 1869 4.3 21:43:08 10° NNW 21:46:44 40° W 21:50:08 11° SSW
H-2A R/B 4.1 21:44:33 12° ESE 21:47:08 21° ENE 21:50:01 10° NNE
CZ-4C R/B 3.8 21:43:44 10° NW 21:49:53 43° NNE 21:57:27 10° E
Cosmos 1536 Rocket 3.6 21:47:10 17° S 21:50:25 64° E 21:54:42 10° NNE
Ariane Rocket 4.2 21:47:53 10° SSW 21:52:32 36° W 21:57:14 10° NNW
ISS -3.7 21:50:07 10° W 21:53:26 77° N 21:56:47 10° E
COSMOS 2406 4.0 21:50:41 10° NNW 21:56:08 44° NE 22:00:48 14° ESE
USA 290 3.6 21:58:14 22° ESE 21:58:40 22° ESE 22:01:15 10° NE
ARIANE 5 R/B 2.9 21:58:54 21° SE 22:01:44 59° ENE 22:06:08 10° N
Cosmos 1269 Rocket 4.2 21:58:10 10° NNW 22:03:29 64° ENE 22:07:06 20° SE
BREEZE-M DEB (TANK) 3.9 21:53:56 10° WNW 22:03:52 36° SW 22:06:11 21° S
Cosmos 1727 Rocket 4.1 21:57:56 10° N 22:04:17 70° ENE 22:08:48 20° SSE
Cosmos 2228 3.7 22:00:57 10° NNW 22:05:00 48° W 22:08:06 16° SSW
ATLAS 3B R/B 3.7 22:01:26 18° SSE 22:05:21 30° ESE 22:11:40 10° NE
Geosat 4.3 22:04:26 10° NNE 22:09:26 69° NW 22:14:25 10° SW
Cosmos 1943 Rocket 2.9 22:08:20 21° SSE 22:11:20 35° ESE 22:16:24 10° NE
USA 276 4.0 22:11:24 10° WSW 22:13:09 16° SW 22:13:09 16° SW
Cosmos 1821 Rocket 4.1 22:09:49 18° S 22:14:31 69° E 22:20:52 10° NNE
USA 281 4.3 22:10:03 10° ESE 22:16:01 39° NE 22:22:01 10° NNW
Gbstr 26 Del rocket 3.5 22:14:29 10° W 22:19:16 81° N 22:25:14 10° E
Cosmos 2058 4.1 22:19:03 22° SE 22:20:33 28° E 22:24:04 10° NNE
Cosmos 2150 Rocket 4.3 22:15:33 10° SSW 22:20:56 71° WNW 22:26:25 10° NNE
ALOS 2 3.6 22:19:19 19° ESE 22:21:53 36° ENE 22:25:55 10° N
Cosmos 2084 Rocket 3.1 22:21:20 10° NW 22:25:20 89° NE 22:27:21 28° SE
Spot 4 4.2 22:23:23 23° SE 22:26:17 56° ENE 22:31:03 10° N
NOSS 3-1 (C) 3.0 22:24:38 10° SSW 22:29:33 71° SE 22:35:33 10° NE
Cosmos 1544 4.0 22:30:25 18° ENE 22:30:25 18° ENE 22:31:35 10° NE
SeaSat 1 2.7 22:26:56 21° SE 22:30:12 65° NE 22:35:06 10° NNW
Cosmos 1932 4.5 22:26:42 10° NW 22:32:58 80° NE 22:37:30 20° SE
Cosmos 1812 2.4 22:31:35 10° N 22:35:08 77° ENE 22:36:28 36° SSE
Terra 4.4 22:35:06 10° WSW 22:36:38 11° W 22:38:11 10° WNW
USA 305 2.9 22:34:26 10° WNW 22:38:00 55° NNE 22:40:35 14° E
Cosmos 1238 Rocket 3.5 22:37:32 10° N 22:40:39 35° ENE 22:42:01 26° ESE
Aureole 2 4.1 22:41:11 35° SSW 22:42:22 89° W 22:45:48 10° NNE
BREEZE-M R/B 3.9 22:38:10 10° WSW 22:42:37 69° SSE 22:58:04 10° E
PSLV R/B 3.8 22:39:02 10° NNE 22:43:01 74° ESE 22:44:51 31° S
Cosmos 1892 Rocket 3.6 22:45:05 29° S 22:47:16 74° E 22:51:43 10° NNE
Cosmos 2251 Rocket 4.4 22:42:09 10° NNW 22:47:19 45° ENE 22:51:01 18° ESE
Cosmos 1140 Rocket 3.5 22:46:47 10° NNW 22:51:57 74° ENE 22:54:49 27° SE
MINOTAUR 4 R/B 3.3 22:53:47 10° NNE 22:56:39 79° ESE 22:57:02 62° S
Cosmos 1833 Rocket 4.4 22:52:29 10° NW 22:56:41 22° WSW 23:00:03 13° SW
Cosmos 2239 Rocket 4.5 22:55:30 22° SSW 22:59:42 84° WNW 23:05:59 10° N
Cosmos 44 4.4 22:56:14 10° WSW 23:01:17 48° NW 23:06:06 10° NE
BREEZE-M DEB (TANK) 3.7 22:58:40 10° W 23:01:36 59° S 23:09:19 10° ESE
SL-08 R/B 4.5 22:57:34 22° SSW 23:01:40 82° W 23:07:50 10° N
USA 307 2.9 22:58:25 10° WNW 23:02:14 63° NNE 23:05:32 11° E
Cosmos-2242 3.6 22:59:57 10° N 23:04:03 46° ENE 23:05:51 28° SE
Cosmos 2123 Rocket 4.0 22:57:48 10° N 23:04:07 90° NE 23:07:51 27° S
CENTAUR R/B 4.2 22:58:06 10° NW 23:05:22 45° NNE 23:13:51 10° E
Lacrosse 5 3.2 23:00:55 10° WNW 23:05:44 42° N 23:10:34 10° ENE
NOSS 3-1 (A) 3.1 23:03:57 24° SSW 23:06:59 64° SE 23:12:57 10° NE
Cosmos 1726 Rocket 4.3 23:02:58 10° NNW 23:07:04 42° W 23:09:05 25° SSW
NOSS 8 (F) 4.5 23:05:23 10° NW 23:08:24 58° SW 23:09:05 46° S
Cosmos 2082 Rocket 2.5 23:05:17 10° NW 23:10:44 52° WSW 23:13:28 28° S
Cosmos 1515 3.9 23:10:34 10° N 23:13:59 52° ENE 23:14:57 38° SE
Cosmos 2278 Rocket 2.8 23:13:11 10° SW 23:18:45 57° NW 23:24:21 10° NNE
ULPM Upper Stage 3.0 23:15:22 10° NW 23:19:38 53° SW 23:20:59 37° S
PSLV R/B 3.9 23:16:31 10° NNE 23:20:45 51° E 23:22:20 34° SSE
Lacrosse 4 Rocket 3.7 23:20:40 11° ESE 23:20:47 11° ESE 23:21:41 10° E
Cosmos 2369 Rocket 3.4 23:19:37 22° SE 23:21:32 26° ESE 23:26:08 10° NE
H-2A R/B 2.9 23:20:31 32° SSW 23:21:49 44° W 23:25:31 10° NNW
Cosmos 489 Rocket 4.4 23:24:25 27° S 23:28:00 74° ESE 23:34:14 10° NNE
Cosmos 1190 Rocket 4.4 23:24:22 10° NNW 23:29:32 59° ENE 23:32:46 22° SE
ISS -3.8 23:26:55 10° W 23:30:11 55° SSW 23:30:11 55° SSW
Cosmos 2058 Rocket 3.8 23:28:46 10° NNW 23:32:53 43° W 23:34:37 28° SW
USA 290 4.1 23:30:56 15° WSW 23:32:56 27° NW 23:35:45 10° N
Cosmos 1782 2.6 23:29:38 10° NNW 23:33:28 83° W 23:34:35 44° S
USA 229 DEB 4.1 23:32:18 28° SSE 23:34:53 40° ESE 23:41:05 10° NE
USA 229 4.1 23:32:27 28° SSE 23:35:01 40° ESE 23:41:12 10° NE
CRYOSAT 2 4.3 23:30:45 10° N 23:35:39 82° W 23:37:58 32° SSW
Cosmos 1862 3.9 23:35:38 33° SE 23:36:39 40° E 23:40:17 10° NNE
Cosmos 1378 2.6 23:34:19 10° N 23:37:34 81° E 23:38:06 58° SSE
Cosmos 482 Debris 4.0 23:34:20 10° WSW 23:38:51 89° NNW 23:42:08 10° ENE
CZ-4C R/B 2.9 23:31:59 10° NW 23:38:58 79° SW 23:45:35 18° SE
COSMOS 2455 3.8 23:33:59 10° NNW 23:39:50 47° NE 23:45:38 10° ESE
Meteor 2-2 Rocket 4.2 23:34:35 10° NNW 23:40:20 86° W 23:43:24 30° S
COSMOS 2406 3.9 23:35:09 10° NW 23:40:24 40° WSW 23:42:50 27° SSW
Cosmos 1934 Rocket 4.2 23:39:12 23° SSW 23:43:12 66° WNW 23:49:24 10° N
Cosmos 2221 3.6 23:40:44 10° N 23:44:41 36° ENE 23:46:52 22° SE
Cosmos 2285 Rocket 4.0 23:45:01 10° NNW 23:51:30 86° ENE 23:55:34 24° SSE
USA 81 4.2 23:49:19 10° N 23:54:33 67° W 23:57:04 31° SSW
Cosmos 1825 Rocket 4.5 23:54:06 26° SE 23:55:45 36° E 23:59:43 10° NNE
